Weather History for Sturgis, MI

Change the Weather History Date:

Sunday, July 14, 2013

  Actual Average (KHAI) Record (KHAI)
Temperature  
Mean Temperature 74 °F -  
Max Temperature 84 °F 85 °F 99 °F (1974)
Min Temperature 64 °F 59 °F 44 °F (1950)
Cooling Degree Days 9    
Growing Degree Days 24 (Base 50)    
Moisture  
Dew Point 68 °F    
Average Humidity 78    
Maximum Humidity 100    
Minimum Humidity 62    
Precipitation  
Precipitation 0.00 in - - ()
Sea Level Pressure  
Sea Level Pressure 30.23 in    
Wind  
Wind Speed 6 mph (ESE)    
Max Wind Speed 10 mph    
Max Gust Speed -    
Visibility 10 miles    
Events      
Averages and records for this station are not official NWS values.
T = Trace of Precipitation, MM = Missing Value Source: NWS Daily Summary

Daily Weather History Graph

Daily Weather History Graph

Search for Another Location

Airport:

Trip Planner

Search our weather history database for the weather conditions in past years. The results will help you decide how hot, cold, wet, or windy it might be!

Date:

Astronomy

Jul. 14, 2013 Rise Set
Actual Time 6:19 AM EDT 9:15 PM EDT
Civil Twilight 5:46 AM EDT 9:48 PM EDT
Nautical Twilight 5:04 AM EDT 10:30 PM EDT
Astronomical Twilight 4:14 AM EDT 11:19 PM EDT
Moon 12:42 PM EDT (7/14) No Moon Set
Length of Visible Light 16h 02m
Length of Day
14h 56m
Waxing Crescent, 35% of the Moon is Illuminated
Jul 14
Waxing Crescent
Jul 15
First Quarter
Jul 22
Full
Jul 29
Last Quarter
Aug 6
New

Hourly Weather History & Observations

Time (EDT) Temp. Heat Index Dew Point Humidity Pressure Visibility Wind Dir Wind Speed Gust Speed Precip Events Conditions
12:15 AM 69.8 °F - 62.6 °F 78% 30.21 in 10.0 mi East 5.8 mph - N/A   Clear
12:35 AM 69.8 °F - 62.6 °F 78% 30.21 in 10.0 mi East 6.9 mph - N/A   Clear
12:54 AM 69.8 °F - 64.4 °F 83% 30.21 in 10.0 mi ESE 6.9 mph - N/A   Clear
1:15 AM 69.8 °F - 64.4 °F 83% 30.21 in 10.0 mi East 6.9 mph - N/A   Clear
1:35 AM 69.8 °F - 64.4 °F 83% 30.21 in 10.0 mi East 6.9 mph - N/A   Clear
1:54 AM 68.0 °F - 64.4 °F 88% 30.21 in 10.0 mi East 5.8 mph - N/A   Clear
2:15 AM 68.0 °F - 64.4 °F 88% 30.20 in 10.0 mi ESE 6.9 mph - N/A   Clear
2:35 AM 66.2 °F - 64.4 °F 94% 30.20 in 10.0 mi East 5.8 mph - N/A   Clear
2:54 AM 66.2 °F - 64.4 °F 94% 30.20 in 10.0 mi ENE 4.6 mph - N/A   Clear
3:15 AM 66.2 °F - 64.4 °F 94% 30.20 in 10.0 mi ENE 6.9 mph - N/A   Clear
3:35 AM 66.2 °F - 64.4 °F 94% 30.20 in 10.0 mi East 6.9 mph - N/A   Clear
3:54 AM 66.2 °F - 64.4 °F 94% 30.20 in 10.0 mi East 6.9 mph - N/A   Clear
4:15 AM 66.2 °F - 64.4 °F 94% 30.20 in 10.0 mi East 8.1 mph - N/A   Clear
4:35 AM 66.2 °F - 64.4 °F 94% 30.20 in 10.0 mi East 6.9 mph - N/A   Clear
4:55 AM 66.2 °F - 64.4 °F 94% 30.21 in 10.0 mi East 4.6 mph - N/A   Clear
5:15 AM 66.2 °F - 64.4 °F 94% 30.22 in 10.0 mi ENE 3.5 mph - N/A   Clear
5:34 AM 64.4 °F - 64.4 °F 100% 30.23 in 7.0 mi NE 3.5 mph - N/A   Clear
5:55 AM 64.4 °F - 64.4 °F 100% 30.23 in 7.0 mi ENE 6.9 mph - N/A   Clear
6:15 AM 64.4 °F - 64.4 °F 100% 30.23 in 7.0 mi ENE 5.8 mph - N/A   Clear
6:34 AM 64.4 °F - 64.4 °F 100% 30.23 in 7.0 mi ENE 6.9 mph - N/A   Clear
6:55 AM 66.2 °F - 64.4 °F 94% 30.23 in 10.0 mi East 8.1 mph - N/A   Clear
7:15 AM 66.2 °F - 66.2 °F 100% 30.23 in 10.0 mi East 8.1 mph - N/A   Clear
7:34 AM 68.0 °F - 66.2 °F 94% 30.24 in 10.0 mi ESE 6.9 mph - N/A   Clear
7:55 AM 69.8 °F - 66.2 °F 88% 30.24 in 10.0 mi East 6.9 mph - N/A   Clear
8:15 AM 71.6 °F - 66.2 °F 83% 30.24 in 10.0 mi ESE 5.8 mph - N/A   Clear
8:34 AM 73.4 °F - 68.0 °F 83% 30.24 in 10.0 mi ESE 4.6 mph - N/A   Clear
8:55 AM 73.4 °F - 68.0 °F 83% 30.24 in 10.0 mi SE 6.9 mph - N/A   Clear
9:14 AM 75.2 °F - 69.8 °F 83% 30.24 in 10.0 mi SE 5.8 mph - N/A   Clear
9:35 AM 77.0 °F - 69.8 °F 78% 30.24 in 10.0 mi ESE 5.8 mph - N/A   Clear
9:54 AM 78.8 °F - 69.8 °F 74% 30.24 in 10.0 mi SE 5.8 mph - N/A   Clear
10:15 AM 78.8 °F - 69.8 °F 74% 30.24 in 10.0 mi SE 5.8 mph - N/A   Clear
10:35 AM 78.8 °F - 69.8 °F 74% 30.24 in 10.0 mi ESE 4.6 mph - N/A   Clear
10:54 AM 80.6 °F 83.9 °F 69.8 °F 70% 30.24 in 10.0 mi SSE 10.4 mph - N/A   Clear
11:15 AM 80.6 °F 83.9 °F 69.8 °F 70% 30.24 in 10.0 mi SE 9.2 mph - N/A   Clear
11:35 AM 80.6 °F 83.9 °F 69.8 °F 70% 30.25 in 10.0 mi ESE 4.6 mph - N/A   Clear
11:54 AM 80.6 °F 83.9 °F 69.8 °F 70% 30.25 in 10.0 mi ESE 8.1 mph - N/A   Scattered Clouds
12:15 PM 82.4 °F 86.3 °F 69.8 °F 66% 30.24 in 10.0 mi ESE 6.9 mph - N/A   Scattered Clouds
12:35 PM 82.4 °F 86.3 °F 69.8 °F 66% 30.25 in 10.0 mi SE 6.9 mph - N/A   Scattered Clouds
12:54 PM 84.2 °F 88.4 °F 69.8 °F 62% 30.24 in 10.0 mi ESE 6.9 mph - N/A   Scattered Clouds
1:15 PM 82.4 °F 86.3 °F 69.8 °F 66% 30.24 in 10.0 mi East 10.4 mph - N/A   Scattered Clouds
1:35 PM 84.2 °F 88.4 °F 69.8 °F 62% 30.24 in 10.0 mi ESE 5.8 mph - N/A   Scattered Clouds
1:54 PM 82.4 °F 86.3 °F 69.8 °F 66% 30.24 in 10.0 mi East 4.6 mph - N/A   Scattered Clouds
2:15 PM 82.4 °F 86.3 °F 69.8 °F 66% 30.24 in 10.0 mi East 9.2 mph - N/A   Scattered Clouds
2:35 PM 84.2 °F 88.4 °F 69.8 °F 62% 30.24 in 10.0 mi East 10.4 mph - N/A   Scattered Clouds
2:54 PM 84.2 °F 88.4 °F 69.8 °F 62% 30.24 in 10.0 mi SE 10.4 mph - N/A   Scattered Clouds
3:15 PM 84.2 °F 88.4 °F 69.8 °F 62% 30.23 in 10.0 mi ESE 9.2 mph - N/A   Scattered Clouds
3:35 PM 84.2 °F 88.4 °F 69.8 °F 62% 30.23 in 10.0 mi ESE 6.9 mph - N/A   Scattered Clouds
3:55 PM 84.2 °F 88.4 °F 69.8 °F 62% 30.23 in 10.0 mi SE 8.1 mph - N/A   Scattered Clouds
4:15 PM 84.2 °F 88.4 °F 69.8 °F 62% 30.23 in 10.0 mi ESE 9.2 mph - N/A   Scattered Clouds
4:34 PM 82.4 °F 86.3 °F 69.8 °F 66% 30.23 in 10.0 mi ESE 6.9 mph - N/A   Mostly Cloudy
4:55 PM 84.2 °F 88.4 °F 69.8 °F 62% 30.23 in 10.0 mi East 5.8 mph - N/A   Mostly Cloudy
5:15 PM 84.2 °F 88.4 °F 69.8 °F 62% 30.23 in 10.0 mi East 6.9 mph - N/A   Scattered Clouds
5:34 PM 84.2 °F 89.6 °F 71.6 °F 66% 30.23 in 10.0 mi ESE 8.1 mph - N/A   Scattered Clouds
5:55 PM 82.4 °F 86.3 °F 69.8 °F 66% 30.23 in 10.0 mi East 8.1 mph - N/A   Scattered Clouds
6:14 PM 84.2 °F 88.4 °F 69.8 °F 62% 30.22 in 10.0 mi ESE 8.1 mph - N/A   Scattered Clouds
6:35 PM 84.2 °F 88.4 °F 69.8 °F 62% 30.22 in 10.0 mi East 6.9 mph - N/A   Clear
6:55 PM 84.2 °F 88.4 °F 69.8 °F 62% 30.22 in 10.0 mi East 6.9 mph - N/A   Clear
7:14 PM 82.4 °F 86.3 °F 69.8 °F 66% 30.22 in 10.0 mi East 9.2 mph - N/A   Clear
7:35 PM 82.4 °F 87.2 °F 71.6 °F 70% 30.22 in 10.0 mi ESE 9.2 mph - N/A   Clear
7:55 PM 82.4 °F 86.3 °F 69.8 °F 66% 30.22 in 10.0 mi ESE 8.1 mph - N/A   Clear
8:14 PM 82.4 °F 86.3 °F 69.8 °F 66% 30.22 in 10.0 mi ESE 8.1 mph - N/A   Clear
8:35 PM 80.6 °F 83.9 °F 69.8 °F 70% 30.23 in 10.0 mi ESE 4.6 mph - N/A   Clear
8:54 PM 80.6 °F 84.6 °F 71.6 °F 74% 30.23 in 10.0 mi ESE 4.6 mph - N/A   Clear
9:15 PM 78.8 °F - 71.6 °F 78% 30.23 in 10.0 mi Calm Calm - N/A   Clear
9:34 PM 77.0 °F - 71.6 °F 83% 30.23 in 10.0 mi East 3.5 mph - N/A   Clear
9:55 PM 77.0 °F - 71.6 °F 83% 30.24 in 10.0 mi Calm Calm - N/A   Clear
10:14 PM 77.0 °F - 71.6 °F 83% 30.25 in 10.0 mi East 3.5 mph - N/A   Clear
10:35 PM 75.2 °F - 71.6 °F 89% 30.25 in 10.0 mi Calm Calm - N/A   Clear
10:55 PM 73.4 °F - 71.6 °F 94% 30.25 in 10.0 mi East 3.5 mph - N/A   Clear
11:14 PM 75.2 °F - 71.6 °F 89% 30.25 in 10.0 mi East 3.5 mph - N/A   Clear
11:35 PM 75.2 °F - 69.8 °F 83% 30.26 in 10.0 mi East 3.5 mph - N/A   Clear
11:55 PM 75.2 °F - 69.8 °F 83% 30.25 in 10.0 mi East 4.6 mph - N/A   Clear